This demonstration page uses our WeatherBlox Daily Observations layout. Learn more.

Left ArrowRight Arrow

39.51506, -84.39828

Hourly Observations for December 11, 2015

Temp ( °F °C ) Dew Point ( °F °C ) Humidity (%) Winds ( mph kmh ) Pressure ( in mb ) Visibility ( mi km ) Precip ( " mm )
12:15 am 00:15 Cloudy 52 11 47 8.5 85 85 SW 7 11 29.83 1010 10 16.0934 N/A
12:35 am 00:35 Cloudy 53 11.5 48 8.8 84 84 SW 9 15 29.83 1010 10 16.0934 N/A
12:55 am 00:55 Cloudy 54 12.4 49 9.7 84 84 SW 7 11 29.83 1010 10 16.0934 N/A
1:15 am 01:15 Cloudy 55 12.5 49 9.6 83 83 SW 7 11 29.83 1010 10 16.0934 N/A
1:35 am 01:35 Cloudy 55 12.5 49 9.7 83 83 SW 6 9 29.83 1010 10 16.0934 N/A
1:55 am 01:55 Cloudy 55 12.5 50 9.8 84 84 SW 7 11 29.83 1010 7 11.26538 N/A
2:15 am 02:15 Cloudy 55 12.5 50 10 85 85 SSW 6 9 29.83 1010 7 11.26538 N/A
2:35 am 02:35 Cloudy 55 12.5 49 9.7 83 83 SSW 7 11 29.83 1010 7 11.26538 N/A
2:55 am 02:55 Cloudy 55 12.5 49 9.7 83 83 SSW 6 9 29.83 1010 7 11.26538 N/A
3:15 am 03:15 Cloudy 55 12.5 50 10 85 85 SSW 6 9 29.83 1010 7 11.26538 N/A
3:35 am 03:35 Cloudy 55 12.5 50 9.8 84 84 SW 7 11 29.85 1011 7 11.26538 N/A
3:55 am 03:55 Cloudy 55 12.5 50 10 85 85 SW 5 7 29.85 1011 7 11.26538 N/A
4:15 am 04:15 Cloudy 55 12.5 49 9.7 83 83 SW 6 9 29.85 1011 7 11.26538 N/A
4:35 am 04:35 Cloudy 55 12.5 49 9.7 83 83 SW 6 9 29.85 1011 7 11.26538 N/A
4:55 am 04:55 Cloudy 55 12.5 50 9.8 84 84 N N/A 29.85 1011 7 11.26538 N/A
5:15 am 05:15 Cloudy 55 12.5 50 9.9 84 84 N N/A 29.85 1011 7 11.26538 N/A
5:35 am 05:35 Cloudy 55 12.5 50 9.8 84 84 N N/A 29.85 1011 7 11.26538 N/A
5:55 am 05:55 Cloudy 55 12.5 50 10 85 85 N N/A 29.85 1011 7 11.26538 N/A
6:15 am 06:15 Cloudy 55 12.5 50 10 85 85 N N/A 29.85 1011 7 11.26538 N/A
6:35 am 06:35 Cloudy 55 12.5 50 10 85 85 N N/A 29.88 1012 7 11.26538 N/A
6:55 am 06:55 Cloudy with Mist and Fog 55 12.5 50 10 85 85 N N/A 29.88 1012 5 8.0467 N/A
7:15 am 07:15 Cloudy 55 12.5 50 10.2 86 86 N N/A 29.88 1012 7 11.26538 N/A
7:35 am 07:35 Cloudy 55 12.5 50 10.1 85 85 N N/A 29.88 1012 7 11.26538 N/A
7:55 am 07:55 Cloudy 55 12.5 50 10.1 85 85 N N/A 29.88 1012 7 11.26538 N/A
8:15 am 08:15 Cloudy with Mist and Fog 55 12.5 50 10.2 86 86 N N/A 29.91 1013 4 6.43736 N/A
8:35 am 08:35 Cloudy with Mist and Fog 55 12.5 50 10.1 85 85 N N/A 29.91 1013 4 6.43736 N/A
8:55 am 08:55 Cloudy with Mist and Fog 55 12.5 50 10.2 86 86 N N/A 29.91 1013 4 6.43736 N/A
9:15 am 09:15 Cloudy with Mist and Fog 55 12.5 50 10.1 85 85 N N/A 29.91 1013 5 8.0467 N/A
9:35 am 09:35 Cloudy with Mist and Fog 55 12.6 50 10.2 85 85 SW 6 9 29.91 1013 5 8.0467 N/A
9:55 am 09:55 Cloudy with Haze 57 13.8 52 11.3 85 85 N N/A 29.91 1013 5 8.0467 N/A
10:15 am 10:15 Cloudy with Haze 57 13.8 52 11.3 85 85 N N/A 29.91 1013 5 8.0467 N/A
10:35 am 10:35 Cloudy with Haze 57 13.8 52 11.1 84 84 SW 8 13 29.94 1014 5 8.0467 N/A
10:55 am 10:55 Cloudy 58 14.3 53 11.5 83 83 SW 12 19 29.94 1014 7 11.26538 N/A
11:15 am 11:15 Cloudy 59 14.8 54 12 83 83 SW 13 20 29.91 1013 7 11.26538 N/A
11:35 am 11:35 Cloudy 60 15.3 55 12.5 84 84 SW 9 15 29.91 1013 7 11.26538 N/A
11:55 am 11:55 Cloudy 60 15.3 54 12 81 81 SW 7 11 29.91 1013 10 16.0934 N/A
12:15 pm 12:15 Cloudy 60 15.3 53 11.7 79 79 SW 9 15 29.88 1012 10 16.0934 N/A
12:35 pm 12:35 Cloudy 60 15.3 53 11.5 78 78 SW 9 15 29.88 1012 10 16.0934 N/A
12:55 pm 12:55 Cloudy 61 16 54 12.1 78 78 SW 9 15 29.88 1012 10 16.0934 N/A
1:15 pm 13:15 Cloudy 61 16 54 12 77 77 SW 9 15 29.88 1012 10 16.0934 N/A
1:35 pm 13:35 Cloudy 61 16 54 12.2 78 78 SW 8 13 29.88 1012 10 16.0934 N/A
1:55 pm 13:55 Cloudy 61 16 54 12.3 79 79 SW 8 13 29.91 1013 10 16.0934 N/A
2:15 pm 14:15 Cloudy 61 16 54 12.1 78 78 SW 9 15 29.91 1013 10 16.0934 N/A
2:35 pm 14:35 Cloudy 61 16 54 12.1 78 78 SSW 8 13 29.88 1012 10 16.0934 N/A
2:55 pm 14:55 Cloudy 61 16 54 12.2 78 78 SSW 9 15 29.88 1012 10 16.0934 N/A
3:15 pm 15:15 Cloudy 62 16.6 54 12.3 76 76 SSW 9 15 29.88 1012 10 16.0934 N/A
3:35 pm 15:35 Cloudy 62 16.6 54 12.1 75 75 S 8 13 29.88 1012 10 16.0934 N/A
3:55 pm 15:55 Mostly Cloudy 62 16.5 54 12.2 76 76 SSW 5 7 29.88 1012 10 16.0934 N/A
4:15 pm 16:15 Partly Cloudy 62 16.4 54 12.1 76 76 S 3 6 29.88 1012 10 16.0934 N/A
4:35 pm 16:35 Mostly Cloudy 62 16.6 54 12 74 74 S 6 9 29.88 1012 10 16.0934 N/A
4:55 pm 16:55 Cloudy 62 16.6 54 12 74 74 S 6 9 29.88 1012 10 16.0934 N/A
5:15 pm 17:15 Cloudy 62 16.6 54 12.2 75 75 S 5 7 29.88 1012 10 16.0934 N/A
5:35 pm 17:35 Cloudy 62 16.6 54 12 74 74 S 3 6 29.88 1012 10 16.0934 N/A
5:55 pm 17:55 Cloudy 62 16.6 54 12 74 74 S 5 7 29.88 1012 10 16.0934 N/A
6:15 pm 18:15 Cloudy 62 16.6 54 12 74 74 S 6 9 29.88 1012 10 16.0934 N/A
6:35 pm 18:35 Cloudy 62 16.6 54 12 74 74 N N/A 29.91 1013 10 16.0934 N/A
6:55 pm 18:55 Cloudy 61 16 54 12.1 78 78 N N/A 29.91 1013 10 16.0934 N/A
7:15 pm 19:15 Cloudy 60 15.3 53 11.8 80 80 N N/A 29.91 1013 10 16.0934 N/A
7:35 pm 19:35 Cloudy 60 15.3 54 12.2 82 82 N N/A 29.91 1013 10 16.0934 N/A
7:55 pm 19:55 Cloudy 60 15.3 54 12.4 83 83 N N/A 29.91 1013 10 16.0934 N/A
8:15 pm 20:15 Cloudy 59 15.1 54 12.3 83 83 N N/A 29.91 1013 10 16.0934 N/A
8:35 pm 20:35 Cloudy 57 13.8 52 11.1 84 84 N N/A 29.97 1015 10 16.0934 N/A
8:55 pm 20:55 Cloudy 57 13.8 52 11.1 84 84 N N/A 29.97 1015 10 16.0934 N/A
9:15 pm 21:15 Cloudy 57 13.8 52 11.2 84 84 N N/A 29.97 1015 10 16.0934 N/A
9:35 pm 21:35 Cloudy 57 13.8 53 11.4 86 86 N N/A 29.97 1015 10 16.0934 N/A
9:55 pm 21:55 Cloudy 59 15.2 55 12.5 84 84 N N/A 29.94 1014 10 16.0934 N/A
10:15 pm 22:15 Cloudy 57 13.8 53 11.7 87 87 N N/A 29.97 1015 7 11.26538 N/A
10:35 pm 22:35 Cloudy 57 13.8 53 11.7 87 87 N N/A 29.97 1015 7 11.26538 N/A
10:55 pm 22:55 Mostly Cloudy 58 14.4 54 12.2 87 87 N N/A 29.97 1015 10 16.0934 N/A
11:15 pm 23:15 Mostly Cloudy 60 15.3 55 13 86 86 N N/A 29.94 1014 10 16.0934 N/A
11:35 pm 23:35 Cloudy 57 13.9 53 11.9 88 88 N N/A 29.94 1014 7 11.26538 N/A
11:55 pm 23:55 Cloudy 58 14.6 55 12.5 87 87 N N/A 29.91 1013 7 11.26538 N/A

Powered by AerisWeather